GW2652 Weather Reports


Display with metric or nautical units.
time (UTC)temp
F
wind
direction
speed
MPH
gust
MPH
rain 1hr
in
rain 24hr
in
rain mn
in
humidity
%
barometer
mb
20260903062232 65 320 3.0 3.0 0.07 0.70 0.70 99 1013.8
20260903061729 65 205 2.0 3.0 0.00 0.69 0.69 99 1013.3
20260903061228 65 211 1.0 1.0 0.00 0.69 0.69 99 1013.5
20260903060724 65 326 4.0 6.0 0.17 0.69 0.69 99 1013.3
20260903060224 65 285 2.0 6.0 1.06 0.69 0.69 99 1013.0
20260903055721 65 286 2.0 2.0 1.13 0.67 0.67 99 1013.7
20260903055220 66 273 4.0 4.0 0.38 0.53 0.53 99 1013.7
20260903054715 65 291 1.0 2.0 0.42 0.48 0.48 99 1013.6
20260903054210 66 326 2.0 4.0 0.64 0.47 0.47 99 1013.5
20260903053707 66 253 4.0 4.0 0.78 0.42 0.42 99 1014.0
20260903053201 65 187 1.0 2.0 0.54 0.36 0.36 99 1014.1
20260903052657 65 223 2.0 2.0 0.17 0.28 0.28 99 1014.1
20260903052153 65 129 0.0 0.0 0.19 0.27 0.27 99 1014.2
20260903051647 65 167 1.0 1.0 0.07 0.25 0.25 99 1013.8
20260903051143 65 168 0.0 0.0 0.00 0.24 0.24 99 1013.8
20260903050638 65 125 0.0 1.0 0.07 0.24 0.24 99 1013.9
20260903050132 65 124 1.0 2.0 0.12 0.24 0.24 99 1013.6
20260903045632 65 123 0.0 0.0 0.17 0.23 0.23 99 1013.8
20260903045128 64 221 1.0 2.0 0.42 0.22 0.22 99 1013.8
20260903044624 64 153 0.0 1.0 0.47 0.21 0.21 99 1014.0
20260903044119 64 164 0.0 0.0 0.42 0.15 0.15 99 1014.7
20260903043616 64 87 0.0 0.0 0.38 0.12 0.12 99 1014.8
20260903043115 64 84 0.0 0.0 0.24 0.09 0.09 99 1015.0
20260903042615 64 162 1.0 2.0 0.19 0.07 0.07 99 1015.0
20260903042110 64 160 0.0 0.0 0.19 0.05 0.05 99 1015.5
20260903041607 64 168 0.0 1.0 0.12 0.04 0.04 99 1015.7
20260903041102 64 184 0.0 0.0 0.12 0.02 0.02 99 1016.2
20260903040601 64 172 0.0 1.0 0.12 0.02 0.02 99 1015.3
20260903040057 63 174 0.0 0.0 0.05 1.72 1.72 99 1015.2
20260903035553 63 175 0.0 0.0 0.12 1.72 1.72 99 1014.8
20260903035048 63 195 0.0 0.0 0.07 1.71 1.71 99 1014.6
20260903034543 63 312 0.0 0.0 0.07 1.70 1.70 99 1014.1
20260903034039 63 147 0.0 0.0 0.07 1.70 1.70 99 1014.1
20260903033533 63 228 1.0 3.0 0.05 1.69 1.69 99 1014.2
20260903033029 63 136 1.0 1.0 0.12 1.69 1.69 99 1014.3
20260903032524 63 134 0.0 1.0 0.12 1.68 1.68 99 1014.7
20260903032019 64 146 1.0 1.0 0.17 1.67 1.67 99 1014.8
20260903031518 64 215 1.0 1.0 0.24 1.66 1.66 99 1015.0
20260903031014 64 150 1.0 2.0 0.24 1.64 1.64 99 1015.3
20260903030509 64 169 0.0 1.0 0.31 1.62 1.62 99 1015.3
20260903030006 64 171 0.0 0.0 0.31 1.60 1.60 99 1015.8
20260903025501 64 172 0.0 1.0 0.26 1.58 1.58 99 1015.9
20260903024956 64 193 1.0 1.0 0.19 1.55 1.55 99 1015.8
20260903024455 64 231 2.0 2.0 0.24 1.54 1.54 99 1016.0
20260903023950 64 292 4.0 4.0 0.17 1.52 1.52 99 1016.0
20260903023446 64 147 1.0 1.0 0.12 1.50 1.50 99 1015.6
20260903022941 65 173 0.0 0.0 0.12 1.49 1.49 99 1015.4
20260903022440 65 164 0.0 1.0 0.42 1.48 1.48 99 1015.8
20260903021938 65 172 0.0 0.0 0.61 1.47 1.47 99 1016.5
20260903021434 65 210 2.0 2.0 1.61 1.43 1.43 99 1017.2
20260903020929 65 159 0.0 1.0 1.44 1.37 1.37 99 1016.7
20260903020424 65 162 2.0 3.0 0.05 1.13 1.13 99 1018.5
20260903015919 65 167 0.0 0.0 0.12 1.13 1.13 99 1015.6
20260903015415 65 167 0.0 0.0 0.07 1.12 1.12 99 1015.4
20260903014909 65 166 0.0 0.0 0.00 1.11 1.11 99 1015.5
20260903014409 65 165 1.0 2.0 0.00 1.11 1.11 99 1015.3
20260903013904 65 165 2.0 2.0 0.00 1.11 1.11 99 1015.5
20260903013403 65 166 0.0 0.0 0.00 1.11 1.11 99 1015.7
20260903012902 65 166 0.0 0.0 0.00 1.11 1.11 99 1015.8
20260903012357 65 166 1.0 1.0 0.00 1.11 1.11 99 1015.6
20260903011856 65 166 2.0 2.0 0.00 1.11 1.11 99 1016.0
20260903011350 66 166 0.0 0.0 0.00 1.11 1.11 99 1015.9
20260903010846 66 166 2.0 3.0 0.00 1.11 1.11 99 1015.9
20260903010341 65 157 0.0 1.0 0.00 1.11 1.11 99 1014.8
20260903005839 66 157 1.0 1.0 0.00 1.11 1.11 99 1014.7
20260903005335 66 157 0.0 0.0 0.00 1.11 1.11 99 1015.5
20260903004831 66 157 0.0 0.0 0.00 1.11 1.11 99 1015.1
20260903004326 66 157 1.0 1.0 0.00 1.11 1.11 99 1015.5
20260903003821 66 8 0.0 0.0 0.00 1.11 1.11 99 1015.6
20260903003315 66 156 0.0 1.0 0.00 1.11 1.11 99 1015.2
20260903002810 66 146 0.0 0.0 0.00 1.11 1.11 99 1015.2
20260903002309 66 146 0.0 0.0 0.00 1.11 1.11 99 1015.3
20260903001805 66 111 0.0 0.0 0.00 1.11 1.11 99 1015.2
20260903001300 66 87 0.0 0.0 0.00 1.11 1.11 99 1015.0
20260903000754 66 60 0.0 1.0 0.00 1.11 1.11 99 1015.1
20260903000249 66 169 0.0 1.0 0.00 1.11 1.11 99 1014.8
20260902235747 66 152 1.0 2.0 0.00 1.11 1.11 99 1015.0
20260902235243 66 186 0.0 0.0 0.00 1.11 1.11 99 1015.2
20260902234742 66 120 1.0 1.0 0.00 1.11 1.11 99 1015.2
20260902234242 66 149 0.0 0.0 0.00 1.11 1.11 99 1015.3
20260902233742 66 156 1.0 2.0 0.00 1.11 1.11 99 1015.5
20260902233236 66 189 0.0 0.0 0.00 1.11 1.11 99 1015.3
20260902232734 66 214 1.0 2.0 0.00 1.11 1.11 99 1015.4
20260902232228 66 197 0.0 0.0 0.00 1.11 1.11 99 1015.2
20260902231723 66 152 0.0 1.0 0.00 1.11 1.11 99 1015.1
20260902231218 66 127 0.0 0.0 0.00 1.11 1.11 99 1014.7
20260902230713 66 124 1.0 1.0 0.00 1.11 1.11 99 1015.0
20260902230212 66 153 0.0 0.0 0.00 1.11 1.11 99 1015.2
20260902225706 66 149 0.0 0.0 0.00 1.11 1.11 99 1015.1
20260902225201 66 145 2.0 2.0 0.00 1.11 1.11 99 1015.0
20260902224659 66 137 2.0 2.0 0.00 1.11 1.11 99 1015.1
20260902224155 66 128 1.0 1.0 0.00 1.11 1.11 99 1015.1
20260902223651 67 154 0.0 1.0 0.00 1.11 1.11 99 1015.5
20260902223150 67 157 1.0 2.0 0.00 1.11 1.11 99 1015.5
20260902222643 67 128 2.0 2.0 0.00 1.11 1.11 99 1015.9
20260902222142 67 143 1.0 1.0 0.00 1.11 1.11 99 1015.8
20260902221637 67 149 1.0 1.0 0.00 1.11 1.11 99 1015.8
20260902221132 67 143 0.0 0.0 0.00 1.11 1.11 99 1015.7
20260902220627 68 143 3.0 3.0 0.00 1.11 1.11 98 1015.8
20260902220122 68 150 0.0 1.0 0.00 1.11 1.11 99 1015.7
20260902215618 68 160 1.0 1.0 0.00 1.11 1.11 98 1015.9
20260902215113 68 155 0.0 1.0 0.00 1.11 1.11 98 1016.0
20260902214608 68 149 1.0 1.0 0.00 1.11 1.11 98 1015.9
20260902214107 68 195 0.0 0.0 0.00 1.11 1.11 98 1016.0
20260902213603 68 163 0.0 0.0 0.00 1.11 1.11 98 1015.6
20260902213102 68 179 0.0 0.0 0.00 1.11 1.11 98 1015.7
20260902212557 68 173 1.0 1.0 0.00 1.11 1.11 97 1016.0
20260902212053 68 150 1.0 1.0 0.00 1.11 1.11 97 1015.7
20260902211550 68 184 1.0 2.0 0.00 1.11 1.11 97 1015.8
20260902211049 69 156 0.0 1.0 0.00 1.11 1.11 97 1015.8
20260902210544 68 162 0.0 0.0 0.00 1.11 1.11 97 1015.5
20260902210043 68 170 0.0 0.0 0.00 1.11 1.11 97 1015.7
20260902205543 68 147 1.0 2.0 0.00 1.11 1.11 97 1015.8
20260902205038 69 148 1.0 1.0 0.00 1.11 1.11 96 1015.7
20260902204533 69 133 1.0 2.0 0.00 1.11 1.11 96 1015.6
20260902204028 69 133 0.0 1.0 0.00 1.11 1.11 96 1015.9
20260902203523 69 157 0.0 1.0 0.00 1.11 1.11 96 1015.5
20260902203022 69 133 1.0 2.0 0.00 1.11 1.11 96 1015.6
20260902202519 69 133 0.0 1.0 0.00 1.11 1.11 96 1016.3
20260902202015 69 133 1.0 2.0 0.00 1.11 1.11 97 1015.9
20260902201510 69 135 0.0 1.0 0.00 1.11 1.11 96 1016.0
20260902201009 69 130 1.0 2.0 0.00 1.11 1.11 96 1016.2
20260902200505 69 141 0.0 0.0 0.00 1.11 1.11 96 1015.9
20260902200000 70 244 2.0 3.0 0.00 1.11 1.11 95 1015.9
20260902195456 70 118 1.0 2.0 0.00 1.11 1.11 95 1016.2
20260902194949 70 147 2.0 2.0 0.00 1.11 1.11 95 1016.3
20260902194449 69 203 1.0 1.0 0.00 1.11 1.11 97 1016.4
20260902193945 70 237 2.0 2.0 0.00 1.11 1.11 95 1016.5
20260902193440 70 205 1.0 1.0 0.00 1.11 1.11 95 1016.3
20260902192939 70 333 0.0 0.0 0.00 1.11 1.11 96 1016.5
20260902192438 70 221 3.0 3.0 0.00 1.11 1.11 96 1016.5
20260902191937 70 197 1.0 1.0 0.00 1.11 1.11 95 1016.6
20260902191432 70 231 2.0 3.0 0.00 1.11 1.11 95 1016.5
20260902190928 70 293 4.0 4.0 0.00 1.11 1.11 96 1016.4
20260902190423 71 303 8.0 9.0 0.00 1.11 1.11 94 1016.3
20260902185918 71 285 2.0 3.0 0.00 1.11 1.11 95 1016.6
20260902185414 70 89 4.0 7.0 0.00 1.11 1.11 94 1016.4
20260902184909 70 338 1.0 2.0 0.00 1.11 1.11 95 1016.5
20260902184404 70 96 4.0 6.0 0.00 1.11 1.11 95 1016.5
20260902183900 70 99 0.0 0.0 0.00 1.11 1.11 96 1016.5
20260902183356 70 159 2.0 2.0 0.00 1.11 1.11 95 1016.7
20260902182852 70 166 0.0 1.0 0.00 1.11 1.11 96 1016.7
20260902182348 69 164 2.0 3.0 0.00 1.11 1.11 98 1016.8
20260902181844 69 276 1.0 2.0 0.00 1.11 1.11 97 1016.7
20260902181340 71 197 2.0 2.0 0.00 1.11 1.11 96 1016.8
20260902180838 70 186 1.0 1.0 0.00 1.11 1.11 97 1016.9
20260902180335 69 148 0.0 0.0 0.00 1.11 1.11 99 1017.1
20260902175824 69 142 0.0 1.0 0.00 1.11 1.11 99 1017.4
20260902175319 68 182 0.0 1.0 0.00 1.11 1.11 99 1017.3
20260902174815 68 218 0.0 0.0 0.00 1.11 1.11 99 1017.5
20260902174311 68 192 2.0 2.0 0.00 1.11 1.11 99 1017.2
20260902173807 68 232 1.0 2.0 0.00 1.11 1.11 99 1017.5
20260902173301 68 163 1.0 1.0 0.00 1.11 1.11 99 1017.4
20260902172756 68 163 1.0 1.0 0.00 1.11 1.11 99 1017.5
20260902172255 67 248 3.0 3.0 0.00 1.11 1.11 99 1017.4
20260902171750 68 171 0.0 0.0 0.00 1.11 1.11 99 1017.7
20260902171246 68 133 2.0 2.0 0.00 1.11 1.11 99 1017.7
20260902170742 68 155 0.0 1.0 0.00 1.11 1.11 99 1017.5
20260902170237 68 162 0.0 1.0 0.00 1.11 1.11 99 1017.7
20260902165732 68 143 1.0 1.0 0.00 1.11 1.11 99 1017.6
20260902165227 68 156 1.0 1.0 0.00 1.11 1.11 99 1017.7
20260902164726 66 228 0.0 0.0 0.00 1.11 1.11 99 1017.8
20260902164220 66 269 0.0 1.0 0.00 1.11 1.11 99 1017.7
20260902163715 66 294 4.0 6.0 0.00 1.11 1.11 99 1017.9
20260902163210 67 102 0.0 1.0 0.00 1.11 1.11 99 1017.8
20260902162708 66 102 0.0 0.0 0.05 1.11 1.11 99 1017.7
20260902162203 66 102 0.0 0.0 0.05 1.11 1.11 99 1017.6
20260902161658 65 135 3.0 3.0 0.07 1.10 1.10 99 1017.3
20260902161154 65 135 0.0 0.0 0.19 1.10 1.10 99 1017.9
20260902160650 65 137 0.0 1.0 0.31 1.09 1.09 99 1018.2
20260902160144 64 137 0.0 1.0 0.42 1.08 1.08 99 1017.9
20260902155643 64 213 1.0 1.0 1.06 1.04 1.04 99 1018.4
20260902155142 64 132 0.0 0.0 2.03 1.00 1.00 99 1018.0
20260902154637 64 148 0.0 0.0 1.28 0.86 0.86 99 1018.2
20260902154132 64 146 0.0 0.0 0.35 0.66 0.66 99 1019.0
20260902153631 64 156 0.0 0.0 1.72 0.65 0.65 99 1017.9
20260902153126 64 156 0.0 0.0 1.75 0.62 0.62 99 1017.8
20260902152623 64 167 0.0 0.0 0.54 0.40 0.40 99 1018.1
20260902152118 64 156 0.0 0.0 0.19 0.33 0.33 99 1018.2
20260902151614 65 156 0.0 0.0 0.42 0.31 0.31 99 1017.5
20260902151113 65 156 0.0 0.0 1.02 0.30 0.30 99 1017.6
20260902150608 65 156 0.0 0.0 1.39 0.25 0.25 99 1017.7
20260902150103 65 160 0.0 0.0 0.54 0.11 0.11 99 1017.8
20260902145557 65 158 0.0 0.0 0.05 0.02 0.02 99 1017.5
20260902145057 66 157 0.0 0.0 0.12 0.02 0.02 99 1017.7
20260902144554 66 109 0.0 0.0 0.07 0.01 0.01 99 1017.3
20260902144049 66 109 0.0 0.0 0.00 0.00 0.00 99 1017.2
20260902143543 66 109 0.0 0.0 0.00 0.00 0.00 99 1017.3
20260902143039 66 109 0.0 0.0 0.00 0.00 0.00 99 1017.3
20260902142534 66 109 0.0 0.0 0.00 0.00 0.00 99 1017.3
20260902142031 66 109 0.0 0.0 0.00 0.00 0.00 99 1017.5
20260902141530 66 109 0.0 0.0 0.00 0.00 0.00 99 1017.2
20260902141026 66 109 0.0 0.0 0.00 0.00 0.00 99 1017.4
20260902140525 66 109 0.0 0.0 0.00 0.00 0.00 99 1017.8
20260902140021 66 109 0.0 0.0 0.00 0.00 0.00 99 1018.0
20260902135521 66 109 0.0 0.0 0.00 0.00 0.00 99 1017.6
20260902135016 66 109 0.0 0.0 0.00 0.00 0.00 99 1017.8
20260902134512 66 109 0.0 0.0 0.00 0.00 0.00 99 1017.7
20260902134012 67 109 0.0 0.0 0.00 0.00 0.00 99 1017.5
20260902133507 67 109 0.0 0.0 0.00 0.00 0.00 99 1017.2
20260902133006 67 109 0.0 0.0 0.00 0.00 0.00 99 1017.3
20260902132502 67 109 0.0 0.0 0.00 0.00 0.00 99 1017.0
20260902131956 67 152 0.0 0.0 0.00 0.00 0.00 99 1017.4
20260902131453 67 151 0.0 0.0 0.00 0.00 0.00 99 1017.4
20260902130953 67 151 0.0 0.0 0.00 0.00 0.00 99 1017.2
20260902130448 67 151 0.0 0.0 0.00 0.00 0.00 99 1017.5
20260902125943 67 151 0.0 0.0 0.00 0.00 0.00 99 1017.5
20260902125440 67 151 0.0 0.0 0.00 0.00 0.00 99 1017.6
20260902124935 67 151 0.0 0.0 0.00 0.00 0.00 99 1017.5
20260902124431 67 149 0.0 0.0 0.00 0.00 0.00 99 1017.4
20260902123926 67 149 0.0 0.0 0.00 0.00 0.00 99 1017.2
20260902123423 67 149 0.0 0.0 0.00 0.00 0.00 99 1017.1
20260902122920 67 149 0.0 0.0 0.00 0.00 0.00 99 1017.1
20260902122417 67 149 0.0 0.0 0.00 0.00 0.00 99 1016.8
20260902121912 67 149 0.0 0.0 0.00 0.00 0.00 99 1016.8
20260902121407 67 149 0.0 0.0 0.00 0.00 0.00 99 1016.7
20260902120902 68 149 0.0 0.0 0.00 0.00 0.00 99 1016.7
20260902120358 68 148 0.0 0.0 0.00 0.00 0.00 99 1016.6
20260902115857 68 148 0.0 0.0 0.00 0.00 0.00 99 1016.8
20260902115354 67 148 0.0 0.0 0.00 0.00 0.00 99 1016.8
20260902114850 67 148 0.0 0.0 0.00 0.00 0.00 99 1016.6
20260902114346 67 148 0.0 0.0 0.00 0.00 0.00 99 1016.4
20260902113846 67 148 0.0 0.0 0.00 0.00 0.00 99 1016.7
20260902113342 67 149 0.0 0.0 0.00 0.00 0.00 99 1016.2
20260902112841 67 149 0.0 0.0 0.00 0.00 0.00 99 1016.3
20260902112337 67 149 0.0 0.0 0.00 0.00 0.00 99 1016.3
20260902111833 67 192 0.0 0.0 0.00 0.00 0.00 99 1016.3
20260902111329 67 192 0.0 0.0 0.00 0.00 0.00 99 1016.5
20260902110824 67 192 0.0 0.0 0.00 0.00 0.00 99 1016.4
20260902110320 68 192 0.0 0.0 0.00 0.00 0.00 99 1016.3
20260902105820 68 192 0.0 0.0 0.00 0.00 0.00 99 1016.6
20260902105315 68 193 0.0 0.0 0.00 0.00 0.00 99 1016.6
20260902104810 68 193 0.0 0.0 0.00 0.00 0.00 99 1016.7
20260902104307 68 193 0.0 0.0 0.00 0.00 0.00 99 1016.6
20260902103806 68 193 0.0 0.0 0.00 0.00 0.00 99 1016.6
20260902103301 68 193 0.0 0.0 0.00 0.00 0.00 99 1016.9
20260902102756 68 193 0.0 0.0 0.00 0.00 0.00 99 1016.7
20260902102254 68 193 0.0 0.0 0.00 0.00 0.00 99 1016.7
20260902101749 68 193 0.0 0.0 0.00 0.00 0.00 99 1016.8
20260902101244 68 193 0.0 0.0 0.00 0.00 0.00 99 1016.7
20260902100743 68 193 0.0 0.0 0.00 0.00 0.00 99 1016.8
20260902100237 68 193 0.0 0.0 0.00 0.00 0.00 99 1016.7
20260902095732 68 193 0.0 0.0 0.00 0.00 0.00 99 1016.8
20260902095226 68 193 0.0 0.0 0.00 0.00 0.00 99 1016.6
20260902094721 68 193 0.0 0.0 0.00 0.00 0.00 99 1016.5
20260902094218 68 193 0.0 0.0 0.00 0.00 0.00 99 1016.6
20260902093716 68 193 0.0 0.0 0.00 0.00 0.00 99 1016.9
20260902093212 68 193 0.0 0.0 0.00 0.00 0.00 99 1016.6
20260902092712 68 193 0.0 0.0 0.00 0.00 0.00 99 1016.5
20260902092207 68 193 0.0 0.0 0.00 0.00 0.00 99 1016.6
20260902091701 68 193 0.0 0.0 0.00 0.00 0.00 99 1016.6
20260902091158 68 193 0.0 0.0 0.00 0.00 0.00 99 1016.4
20260902090654 68 193 0.0 0.0 0.00 0.00 0.00 99 1016.7
20260902090152 68 193 0.0 0.0 0.00 0.00 0.00 99 1016.5
20260902085647 68 193 0.0 0.0 0.00 0.00 0.00 99 1016.4
20260902085142 68 193 0.0 0.0 0.00 0.00 0.00 99 1016.4
20260902084638 68 192 0.0 0.0 0.00 0.00 0.00 99 1016.3
20260902084134 68 193 0.0 0.0 0.00 0.00 0.00 99 1016.2
20260902083629 68 192 0.0 0.0 0.00 0.00 0.00 99 1016.5
20260902083128 68 193 0.0 0.0 0.00 0.00 0.00 99 1016.2
20260902082624 68 192 0.0 0.0 0.00 0.00 0.00 99 1016.3
20260902082120 68 192 0.0 0.0 0.00 0.00 0.00 99 1016.2
20260902081617 68 192 0.0 0.0 0.00 0.00 0.00 99 1016.3
20260902081116 68 192 0.0 0.0 0.00 0.00 0.00 99 1016.2
20260902080611 68 192 0.0 0.0 0.00 0.00 0.00 99 1016.2
20260902080108 68 192 0.0 0.0 0.00 0.00 0.00 99 1016.3
20260902075607 68 192 0.0 0.0 0.00 0.00 0.00 99 1016.2
20260902075104 68 192 0.0 0.0 0.00 0.00 0.00 99 1016.4
20260902074559 68 192 0.0 0.0 0.00 0.00 0.00 99 1016.4
20260902074054 68 192 0.0 0.0 0.00 0.00 0.00 99 1016.3
20260902073549 68 192 0.0 0.0 0.00 0.00 0.00 99 1016.2
20260902073046 68 192 0.0 0.0 0.00 0.00 0.00 99 1015.9
20260902072541 68 192 0.0 0.0 0.00 0.00 0.00 99 1015.9
20260902072038 68 192 0.0 0.0 0.00 0.00 0.00 99 1016.2
20260902071536 68 192 0.0 0.0 0.00 0.00 0.00 99 1016.0
20260902071033 68 192 0.0 0.0 0.00 0.00 0.00 99 1016.2
20260902070529 68 192 0.0 0.0 0.00 0.00 0.00 99 1016.3
20260902070023 68 192 0.0 0.0 0.00 0.00 0.00 99 1016.3
20260902065517 68 192 0.0 0.0 0.00 0.00 0.00 99 1016.4
20260902065013 68 192 0.0 0.0 0.00 0.00 0.00 99 1016.4
20260902064509 68 192 0.0 0.0 0.00 0.00 0.00 99 1016.5
20260902064004 68 192 0.0 0.0 0.00 0.00 0.00 99 1016.4
20260902063503 68 192 0.0 0.0 0.00 0.00 0.00 99 1016.3
20260902062959 68 192 0.0 0.0 0.00 0.00 0.00 99 1016.8